Location: Bucharest
(44.4268°N, 26.1025°E)
Time: 13:50:02
(UTC+03:00)

ESTCUBE 1 - Pass Details

Date: 29 June 2022
Orbit: 645 x 657 km, 97.9° (Epoch: 15 August)

Event Time Altitude Azimuth Distance (km) Brightness Sun altitude
Exits shadow 23:40:02 33° 194° (SSW) 1,093 ? -18.7°
Maximum altitude 23:41:52 59° 259° (W) 750 ? -18.8°
Drops below altitude 10° 23:46:18 10° 340° (NNW) 2,058 ? -19.1°
Sets 23:48:33 0° 344° (NNW) 2,974 ? -19.3°
